Date,TemperatureHighF,TemperatureAvgF,TemperatureLowF,DewpointHighF,DewpointAvgF,DewpointLowF,HumidityHigh,HumidityAvg,HumidityLow,PressureMaxIn,PressureMinIn,WindSpeedMaxMPH,WindSpeedAvgMPH,GustSpeedMaxMPH,PrecipitationSumIn
2013-10-1,92,73,50,40,33,30,52,27,11,30.06,29.93,7,1,11,0.00
2013-10-2,90,73,56,47,41,35,56,33,15,30.05,29.89,7,1,10,0.00
2013-10-3,92,75,59,55,43,26,71,36,12,29.96,29.79,12,2,14,0.00
2013-10-4,85,71,54,48,40,26,61,35,18,30.05,29.90,14,2,14,0.00
2013-10-5,84,66,48,30,22,9,47,22,7,30.17,30.05,9,2,12,0.00
2013-10-6,88,73,50,22,18,10,30,14,6,30.17,30.05,14,4,20,0.00
2013-10-7,94,77,57,32,27,19,27,17,9,30.09,29.95,8,1,14,0.00
2013-10-8,89,73,55,39,31,27,43,23,12,29.99,29.84,10,2,18,0.00
2013-10-9,87,73,56,45,36,29,44,28,15,29.88,29.76,12,3,22,0.00
2013-10-10,71,63,50,50,44,39,68,50,35,30.00,29.81,16,4,17,0.00
2013-10-11,77,60,44,44,39,35,85,51,22,30.04,29.94,6,1,10,0.00
2013-10-12,85,65,44,40,35,32,71,38,15,30.02,29.90,7,1,11,0.00
2013-10-13,88,71,52,45,39,35,58,34,15,30.05,29.92,14,3,20,0.00
2013-10-14,82,67,50,46,38,33,70,37,19,30.10,29.96,8,1,11,0.00
2013-10-15,82,65,49,45,33,26,59,33,15,30.02,29.90,13,2,14,0.00
2013-10-16,79,60,43,32,20,6,56,26,6,30.12,30.02,6,1,9,0.00
2013-10-17,80,60,39,25,19,12,47,24,8,30.12,29.95,6,1,10,0.00
2013-10-18,82,61,42,26,23,20,48,26,12,30.07,29.97,9,1,10,0.00
2013-10-19,86,63,43,26,18,6,44,22,5,30.11,29.97,8,1,11,0.00
2013-10-20,84,62,41,24,17,11,43,20,7,30.04,29.90,9,1,13,0.00
2013-10-21,85,63,43,25,18,10,42,20,6,30.06,29.97,8,1,11,0.00
2013-10-22,89,70,45,27,19,9,37,17,5,30.10,29.97,10,3,16,0.00
2013-10-23,92,77,60,30,26,22,28,16,8,30.01,29.90,13,3,13,0.00
2013-10-24,90,70,51,34,28,24,40,22,10,30.05,29.91,9,1,13,0.00
2013-10-25,86,66,48,33,28,22,44,26,10,30.13,30.04,8,2,12,0.00
2013-10-26,87,68,45,32,26,21,52,25,9,30.18,30.04,8,2,14,0.00
2013-10-27,89,71,54,36,28,20,39,22,9,30.06,29.83,8,1,14,0.00
2013-10-28,81,68,52,37,31,24,46,27,13,29.98,29.88,10,2,20,0.00
2013-10-29,82,69,51,39,34,28,59,29,15,30.00,29.87,13,3,19,0.00
2013-10-30,69,55,43,42,34,24,72,47,21,30.08,29.94,13,2,14,0.00
2013-10-31,74,54,35,31,25,18,64,36,12,30.16,30.03,7,1,9,0.00